Time,TemperatureF,DewpointF,PressureIn,WindDirection,WindDirectionDegrees,WindSpeedMPH,WindSpeedGustMPH,Humidity,HourlyPrecipIn,Conditions,Clouds,dailyrainin,SoftwareType,DateUTC
2013-06-30 06:45:00,61.2,60.9,29.51,WNW,284,0.0,5.0,99,0.00,,,0.00,Wunderground v.1.15,2013-06-30 10:45:00,
2013-06-30 06:50:00,61.5,60.9,29.51,WNW,284,0.0,5.0,98,0.00,,,0.00,Wunderground v.1.15,2013-06-30 10:50:00,
2013-06-30 06:55:00,61.8,61.5,29.52,WNW,284,0.0,5.0,99,0.00,,,0.00,Wunderground v.1.15,2013-06-30 10:55:00,
2013-06-30 07:00:00,62.2,61.6,29.52,WNW,284,0.0,5.0,98,0.00,,,0.00,Wunderground v.1.15,2013-06-30 11:00:00,
2013-06-30 07:10:00,63.2,62.9,29.52,WNW,297,0.0,0.0,99,0.00,,,0.00,Wunderground v.1.15,2013-06-30 11:10:00,
2013-06-30 07:15:00,63.7,63.4,29.52,WNW,297,0.0,0.0,99,0.00,,,0.00,Wunderground v.1.15,2013-06-30 11:15:00,
2013-06-30 07:20:00,64.4,64.1,29.53,West,267,0.0,0.0,99,0.00,,,0.00,Wunderground v.1.15,2013-06-30 11:20:00,
2013-06-30 07:30:00,65.3,64.7,29.53,SW,223,0.0,0.0,98,0.00,,,0.00,Wunderground v.1.15,2013-06-30 11:30:00,
2013-06-30 07:40:00,65.8,65.2,29.53,NE,53,1.0,1.0,98,0.00,,,0.00,Wunderground v.1.15,2013-06-30 11:40:00,
2013-06-30 07:50:00,66.1,64.9,29.53,NE,36,2.0,2.0,96,0.00,,,0.00,Wunderground v.1.15,2013-06-30 11:50:00,
2013-06-30 08:00:00,66.1,64.6,29.53,NNW,330,3.0,3.0,95,0.00,,,0.00,Wunderground v.1.15,2013-06-30 12:00:00,
2013-06-30 08:05:00,66.5,65.0,29.53,ENE,69,3.0,3.0,95,0.00,,,0.00,Wunderground v.1.15,2013-06-30 12:05:00,
2013-06-30 08:15:00,67.0,65.2,29.53,NE,41,1.0,2.0,94,0.00,,,0.00,Wunderground v.1.15,2013-06-30 12:15:00,
2013-06-30 08:20:00,67.1,65.3,29.54,ENE,62,1.0,1.0,94,0.00,,,0.00,Wunderground v.1.15,2013-06-30 12:20:00,
2013-06-30 08:30:00,67.4,65.3,29.54,ENE,63,1.0,2.0,93,0.00,,,0.00,Wunderground v.1.15,2013-06-30 12:30:00,
2013-06-30 08:40:00,68.3,65.9,29.54,West,281,1.0,2.0,92,0.00,,,0.00,Wunderground v.1.15,2013-06-30 12:40:00,
2013-06-30 08:50:00,68.5,65.4,29.54,ESE,114,2.0,2.0,90,0.00,,,0.00,Wunderground v.1.15,2013-06-30 12:50:00,
2013-06-30 09:00:00,68.6,65.2,29.55,East,82,2.0,3.0,89,0.00,,,0.00,Wunderground v.1.15,2013-06-30 13:00:00,
2013-06-30 09:06:00,68.5,64.8,29.55,North,9,3.0,3.0,88,0.00,,,0.00,Wunderground v.1.15,2013-06-30 13:06:00,
2013-06-30 09:15:00,68.6,64.9,29.55,NE,51,3.0,5.0,88,0.00,,,0.00,Wunderground v.1.15,2013-06-30 13:15:00,
2013-06-30 09:25:00,68.6,64.9,29.55,NNE,24,4.0,5.0,88,0.00,,,0.00,Wunderground v.1.15,2013-06-30 13:25:00,
2013-06-30 09:35:00,68.5,64.5,29.56,East,82,4.0,8.0,87,0.00,,,0.00,Wunderground v.1.15,2013-06-30 13:35:00,
2013-06-30 09:45:00,68.1,64.4,29.56,NE,34,5.0,5.0,88,0.00,,,0.00,Wunderground v.1.15,2013-06-30 13:45:00,
2013-06-30 09:55:00,68.2,64.8,29.56,ENE,60,4.0,6.0,89,0.00,,,0.00,Wunderground v.1.15,2013-06-30 13:55:00,
2013-06-30 10:05:00,68.5,64.8,29.56,North,5,4.0,7.0,88,0.00,,,0.00,Wunderground v.1.15,2013-06-30 14:05:00,
2013-06-30 10:15:00,69.0,64.6,29.56,East,88,4.0,6.0,86,0.00,,,0.00,Wunderground v.1.15,2013-06-30 14:15:00,
2013-06-30 10:20:00,69.1,65.1,29.56,NE,42,4.0,5.0,87,0.00,,,0.00,Wunderground v.1.15,2013-06-30 14:20:00,
2013-06-30 10:30:00,69.3,64.9,29.57,ENE,60,4.0,4.0,86,0.00,,,0.00,Wunderground v.1.15,2013-06-30 14:30:00,
2013-06-30 10:35:00,69.4,65.4,29.57,NNW,346,4.0,4.0,87,0.00,,,0.00,Wunderground v.1.15,2013-06-30 14:35:00,
2013-06-30 10:40:00,69.8,65.4,29.56,NE,53,3.0,7.0,86,0.00,,,0.00,Wunderground v.1.15,2013-06-30 14:40:00,
2013-06-30 10:50:00,70.3,65.6,29.56,North,5,4.0,4.0,85,0.00,,,0.00,Wunderground v.1.15,2013-06-30 14:50:00,
2013-06-30 11:00:00,71.1,66.7,29.56,NNE,16,3.0,3.0,86,0.00,,,0.00,Wunderground v.1.15,2013-06-30 15:00:00,
2013-06-30 11:05:00,71.6,66.5,29.57,NNE,30,2.0,3.0,84,0.00,,,0.00,Wunderground v.1.15,2013-06-30 15:05:00,
2013-06-30 11:15:00,71.5,65.7,29.57,ENE,66,3.0,3.0,82,0.00,,,0.00,Wunderground v.1.15,2013-06-30 15:15:00,
2013-06-30 11:20:00,71.5,66.1,29.57,WNW,302,2.0,2.0,83,0.00,,,0.00,Wunderground v.1.15,2013-06-30 15:20:00,
2013-06-30 11:30:00,71.3,65.9,29.57,NE,55,2.0,2.0,83,0.00,,,0.00,Wunderground v.1.15,2013-06-30 15:30:00,
2013-06-30 11:35:00,71.3,66.2,29.58,NNW,340,2.0,2.0,84,0.00,,,0.00,Wunderground v.1.15,2013-06-30 15:35:00,
2013-06-30 11:45:00,71.7,66.9,29.58,ENE,68,2.0,2.0,85,0.00,,,0.00,Wunderground v.1.15,2013-06-30 15:45:00,
2013-06-30 11:50:00,71.9,66.5,29.57,ENE,68,1.0,1.0,83,0.00,,,0.00,Wunderground v.1.15,2013-06-30 15:50:00,
2013-06-30 11:55:00,72.2,67.4,29.57,ENE,68,1.0,2.0,85,0.00,,,0.00,Wunderground v.1.15,2013-06-30 15:55:00,
2013-06-30 12:05:00,72.6,65.3,29.57,ENE,74,2.0,4.0,78,0.00,,,0.00,Wunderground v.1.15,2013-06-30 16:05:00,
2013-06-30 12:15:00,73.7,67.5,29.57,West,271,1.0,3.0,81,0.00,,,0.00,Wunderground v.1.15,2013-06-30 16:15:00,
2013-06-30 12:25:00,73.5,69.1,29.57,NE,50,2.0,3.0,86,0.00,,,0.00,Wunderground v.1.15,2013-06-30 16:25:00,
2013-06-30 12:35:00,73.8,68.3,29.57,NNE,17,3.0,5.0,83,0.00,,,0.00,Wunderground v.1.15,2013-06-30 16:35:00,
2013-06-30 12:45:00,73.5,68.0,29.57,North,10,3.0,6.0,83,0.00,,,0.00,Wunderground v.1.15,2013-06-30 16:45:00,
2013-06-30 12:55:00,73.5,68.0,29.57,ENE,65,4.0,4.0,83,0.00,,,0.00,Wunderground v.1.15,2013-06-30 16:55:00,
2013-06-30 13:05:00,73.5,68.4,29.58,NW,306,4.0,4.0,84,0.00,,,0.00,Wunderground v.1.15,2013-06-30 17:05:00,
2013-06-30 13:15:00,74.1,68.3,29.57,WNW,301,3.0,7.0,82,0.00,,,0.00,Wunderground v.1.15,2013-06-30 17:15:00,
2013-06-30 13:20:00,74.4,67.1,29.57,ENE,67,3.0,3.0,78,0.00,,,0.00,Wunderground v.1.15,2013-06-30 17:20:00,
2013-06-30 13:30:00,74.2,67.6,29.57,NNE,33,4.0,4.0,80,0.00,,,0.00,Wunderground v.1.15,2013-06-30 17:30:00,
2013-06-30 13:40:00,73.7,66.8,29.57,NNW,337,4.0,4.0,79,0.00,,,0.00,Wunderground v.1.15,2013-06-30 17:40:00,
2013-06-30 13:45:00,74.0,66.3,29.58,NNW,342,3.0,4.0,77,0.00,,,0.00,Wunderground v.1.15,2013-06-30 17:45:00,
2013-06-30 13:55:00,74.1,67.5,29.58,ENE,67,4.0,5.0,80,0.00,,,0.00,Wunderground v.1.15,2013-06-30 17:55:00,
2013-06-30 14:00:00,74.0,68.5,29.58,NNE,18,3.0,3.0,83,0.00,,,0.00,Wunderground v.1.15,2013-06-30 18:00:00,
2013-06-30 14:06:00,74.0,67.8,29.58,North,11,2.0,7.0,81,0.00,,,0.00,Wunderground v.1.15,2013-06-30 18:06:00,
2013-06-30 14:15:00,72.4,66.6,29.58,NE,42,4.0,4.0,82,0.00,,,0.00,Wunderground v.1.15,2013-06-30 18:15:00,
2013-06-30 14:20:00,72.5,67.0,29.58,NNW,347,3.0,5.0,83,0.00,,,0.00,Wunderground v.1.15,2013-06-30 18:20:00,
2013-06-30 14:30:00,73.1,68.0,29.58,NE,51,3.0,3.0,84,0.00,,,0.00,Wunderground v.1.15,2013-06-30 18:30:00,
2013-06-30 14:35:00,73.0,67.2,29.58,NNE,29,4.0,4.0,82,0.00,,,0.00,Wunderground v.1.15,2013-06-30 18:35:00,
2013-06-30 14:45:00,73.3,66.8,29.58,ENE,59,3.0,4.0,80,0.00,,,0.00,Wunderground v.1.15,2013-06-30 18:45:00,
2013-06-30 14:55:00,73.3,67.5,29.59,NE,55,4.0,4.0,82,0.00,,,0.00,Wunderground v.1.15,2013-06-30 18:55:00,
2013-06-30 15:06:00,73.1,66.2,29.59,NNE,24,4.0,8.0,79,0.00,,,0.00,Wunderground v.1.15,2013-06-30 19:06:00,
2013-06-30 15:15:00,72.9,66.7,29.59,ENE,57,5.0,8.0,81,0.00,,,0.00,Wunderground v.1.15,2013-06-30 19:15:00,
2013-06-30 15:20:00,73.1,66.2,29.58,ENE,67,5.0,7.0,79,0.00,,,0.00,Wunderground v.1.15,2013-06-30 19:20:00,
2013-06-30 15:25:00,73.0,66.5,29.59,NE,55,4.0,7.0,80,0.00,,,0.00,Wunderground v.1.15,2013-06-30 19:25:00,
2013-06-30 15:35:00,72.4,64.4,29.59,NNE,17,6.0,6.0,76,0.00,,,0.00,Wunderground v.1.15,2013-06-30 19:35:00,
2013-06-30 15:40:00,72.3,64.7,29.59,NE,53,6.0,7.0,77,0.00,,,0.00,Wunderground v.1.15,2013-06-30 19:40:00,
2013-06-30 15:50:00,72.9,65.6,29.58,ENE,59,4.0,7.0,78,0.00,,,0.00,Wunderground v.1.15,2013-06-30 19:50:00,
2013-06-30 16:00:00,72.8,65.2,29.58,ENE,65,5.0,5.0,77,0.00,,,0.00,Wunderground v.1.15,2013-06-30 20:00:00,
2013-06-30 16:05:00,72.9,64.1,29.58,NE,47,5.0,6.0,74,0.00,,,0.00,Wunderground v.1.15,2013-06-30 20:05:00,
2013-06-30 16:15:00,73.5,65.8,29.58,NW,319,5.0,6.0,77,0.00,,,0.00,Wunderground v.1.15,2013-06-30 20:15:00,
2013-06-30 16:20:00,73.6,64.8,29.58,ENE,57,4.0,7.0,74,0.00,,,0.00,Wunderground v.1.15,2013-06-30 20:20:00,
2013-06-30 16:30:00,73.4,64.6,29.57,NE,42,5.0,5.0,74,0.00,,,0.00,Wunderground v.1.15,2013-06-30 20:30:00,
2013-06-30 16:35:00,73.5,65.1,29.58,East,96,5.0,6.0,75,0.00,,,0.00,Wunderground v.1.15,2013-06-30 20:35:00,
2013-06-30 16:45:00,73.8,65.0,29.58,NNE,28,4.0,4.0,74,0.00,,,0.00,Wunderground v.1.15,2013-06-30 20:45:00,
2013-06-30 16:50:00,73.9,64.3,29.58,NNW,327,5.0,5.0,72,0.00,,,0.00,Wunderground v.1.15,2013-06-30 20:50:00,
2013-06-30 16:55:00,73.8,64.2,29.58,NNW,328,5.0,5.0,72,0.00,,,0.00,Wunderground v.1.15,2013-06-30 20:55:00,
2013-06-30 17:06:00,73.8,64.2,29.59,NNW,348,3.0,6.0,72,0.00,,,0.00,Wunderground v.1.15,2013-06-30 21:06:00,
2013-06-30 17:15:00,73.7,63.3,29.59,NE,40,4.0,6.0,70,0.00,,,0.00,Wunderground v.1.15,2013-06-30 21:15:00,
2013-06-30 17:25:00,73.9,63.5,29.58,East,80,3.0,4.0,70,0.00,,,0.00,Wunderground v.1.15,2013-06-30 21:25:00,
2013-06-30 17:30:00,73.9,63.9,29.58,NE,48,3.0,3.0,71,0.00,,,0.00,Wunderground v.1.15,2013-06-30 21:30:00,
2013-06-30 17:40:00,74.0,62.8,29.58,ENE,67,4.0,4.0,68,0.00,,,0.00,Wunderground v.1.15,2013-06-30 21:40:00,
2013-06-30 17:45:00,74.0,63.6,29.59,NE,34,4.0,4.0,70,0.00,,,0.00,Wunderground v.1.15,2013-06-30 21:45:00,
2013-06-30 17:50:00,74.2,63.8,29.58,East,99,3.0,5.0,70,0.00,,,0.00,Wunderground v.1.15,2013-06-30 21:50:00,
2013-06-30 17:55:00,74.3,63.1,29.59,NNE,32,3.0,5.0,68,0.00,,,0.00,Wunderground v.1.15,2013-06-30 21:55:00,
2013-06-30 18:06:00,74.6,63.8,29.59,East,93,3.0,3.0,69,0.00,,,0.00,Wunderground v.1.15,2013-06-30 22:06:00,
2013-06-30 18:15:00,74.5,64.1,29.59,East,84,4.0,4.0,70,0.00,,,0.00,Wunderground v.1.15,2013-06-30 22:15:00,
2013-06-30 18:25:00,74.4,63.1,29.59,ENE,65,3.0,4.0,68,0.00,,,0.00,Wunderground v.1.15,2013-06-30 22:25:00,
2013-06-30 18:30:00,74.4,64.0,29.59,ENE,74,3.0,4.0,70,0.00,,,0.00,Wunderground v.1.15,2013-06-30 22:30:00,
2013-06-30 18:40:00,74.1,62.4,29.59,East,84,3.0,5.0,67,0.00,,,0.00,Wunderground v.1.15,2013-06-30 22:40:00,
2013-06-30 18:50:00,73.9,62.2,29.60,SE,136,4.0,4.0,67,0.00,,,0.00,Wunderground v.1.15,2013-06-30 22:50:00,
2013-06-30 19:00:00,74.0,63.2,29.60,ENE,69,2.0,2.0,69,0.00,,,0.00,Wunderground v.1.15,2013-06-30 23:00:00,
2013-06-30 19:05:00,74.1,63.7,29.60,ENE,69,2.0,2.0,70,0.00,,,0.00,Wunderground v.1.15,2013-06-30 23:05:00,
2013-06-30 19:15:00,74.0,63.2,29.60,East,79,3.0,3.0,69,0.00,,,0.00,Wunderground v.1.15,2013-06-30 23:15:00,
2013-06-30 19:20:00,74.0,63.2,29.60,NE,38,2.0,2.0,69,0.00,,,0.00,Wunderground v.1.15,2013-06-30 23:20:00,
2013-06-30 19:30:00,74.0,62.8,29.61,NE,46,2.0,3.0,68,0.00,,,0.00,Wunderground v.1.15,2013-06-30 23:30:00,
2013-06-30 19:40:00,73.7,62.1,29.61,ENE,77,2.0,2.0,67,0.00,,,0.00,Wunderground v.1.15,2013-06-30 23:40:00,
2013-06-30 19:50:00,73.3,62.9,29.61,ENE,77,1.0,1.0,70,0.00,,,0.00,Wunderground v.1.15,2013-06-30 23:50:00,
2013-06-30 20:00:00,72.8,63.2,29.61,ENE,77,1.0,1.0,72,0.00,,,0.00,Wunderground v.1.15,2013-07-01 00:00:00,
2013-06-30 20:06:00,72.4,63.3,29.61,ENE,76,1.0,2.0,73,0.00,,,0.00,Wunderground v.1.15,2013-07-01 00:06:00,
2013-06-30 20:15:00,72.1,64.9,29.61,NE,50,1.0,1.0,78,0.00,,,0.00,Wunderground v.1.15,2013-07-01 00:15:00,
2013-06-30 20:20:00,71.9,65.0,29.61,NNE,12,1.0,1.0,79,0.00,,,0.00,Wunderground v.1.15,2013-07-01 00:20:00,
2013-06-30 20:25:00,71.6,65.1,29.61,ENE,62,1.0,1.0,80,0.00,,,0.00,Wunderground v.1.15,2013-07-01 00:25:00,
2013-06-30 20:35:00,71.0,64.9,29.61,NE,52,1.0,1.0,81,0.00,,,0.00,Wunderground v.1.15,2013-07-01 00:35:00,
2013-06-30 20:45:00,70.5,65.4,29.62,NE,52,0.0,0.0,84,0.00,,,0.00,Wunderground v.1.15,2013-07-01 00:45:00,
2013-06-30 20:55:00,70.0,64.9,29.62,NE,52,0.0,0.0,84,0.00,,,0.00,Wunderground v.1.15,2013-07-01 00:55:00,
2013-06-30 21:06:00,69.5,65.1,29.63,NE,52,0.0,2.0,86,0.00,,,0.00,Wunderground v.1.15,2013-07-01 01:06:00,
2013-06-30 21:15:00,69.0,65.3,29.63,NE,52,0.0,1.0,88,0.00,,,0.00,Wunderground v.1.15,2013-07-01 01:15:00,
2013-06-30 21:25:00,68.4,64.7,29.63,NE,52,0.0,0.0,88,0.00,,,0.00,Wunderground v.1.15,2013-07-01 01:25:00,
2013-06-30 21:35:00,68.2,64.8,29.64,NE,52,0.0,0.0,89,0.00,,,0.00,Wunderground v.1.15,2013-07-01 01:35:00,
2013-06-30 21:45:00,67.8,64.4,29.64,NE,52,0.0,0.0,89,0.00,,,0.00,Wunderground v.1.15,2013-07-01 01:45:00,
2013-06-30 21:50:00,67.7,64.7,29.64,NE,52,0.0,0.0,90,0.00,,,0.00,Wunderground v.1.15,2013-07-01 01:50:00,
2013-06-30 22:00:00,67.4,64.7,29.65,NE,52,0.0,1.0,91,0.00,,,0.00,Wunderground v.1.15,2013-07-01 02:00:00,
2013-06-30 22:06:00,67.1,64.7,29.65,NE,52,0.0,1.0,92,0.00,,,0.00,Wunderground v.1.15,2013-07-01 02:06:00,
2013-06-30 22:15:00,66.7,64.6,29.65,NE,52,0.0,0.0,93,0.00,,,0.00,Wunderground v.1.15,2013-07-01 02:15:00,
2013-06-30 22:20:00,66.5,64.4,29.66,NE,52,0.0,0.0,93,0.00,,,0.00,Wunderground v.1.15,2013-07-01 02:20:00,
2013-06-30 22:30:00,66.3,64.5,29.66,NE,52,0.0,0.0,94,0.00,,,0.00,Wunderground v.1.15,2013-07-01 02:30:00,
2013-06-30 22:35:00,66.1,64.3,29.66,NE,52,0.0,0.0,94,0.00,,,0.00,Wunderground v.1.15,2013-07-01 02:35:00,
2013-06-30 22:45:00,65.6,63.8,29.67,NE,52,0.0,0.0,94,0.00,,,0.00,Wunderground v.1.15,2013-07-01 02:45:00,
2013-06-30 22:55:00,65.3,63.5,29.66,NE,52,0.0,0.0,94,0.00,,,0.00,Wunderground v.1.15,2013-07-01 02:55:00,
2013-06-30 23:00:00,65.1,63.3,29.67,NE,52,0.0,0.0,94,0.00,,,0.00,Wunderground v.1.15,2013-07-01 03:00:00,
2013-06-30 23:05:00,65.0,63.5,29.67,NE,52,0.0,0.0,95,0.00,,,0.00,Wunderground v.1.15,2013-07-01 03:05:00,
2013-06-30 23:10:00,64.9,63.4,29.67,NE,52,0.0,0.0,95,0.00,,,0.00,Wunderground v.1.15,2013-07-01 03:10:00,
2013-06-30 23:15:00,64.8,63.3,29.67,NE,52,0.0,0.0,95,0.00,,,0.00,Wunderground v.1.15,2013-07-01 03:15:00,
2013-06-30 23:25:00,64.8,63.6,29.67,NE,52,0.0,0.0,96,0.00,,,0.00,Wunderground v.1.15,2013-07-01 03:25:00,
2013-06-30 23:35:00,64.8,63.6,29.66,NE,52,0.0,0.0,96,0.00,,,0.00,Wunderground v.1.15,2013-07-01 03:35:00,
2013-06-30 23:40:00,64.8,63.6,29.66,NE,52,0.0,0.0,96,0.00,,,0.00,Wunderground v.1.15,2013-07-01 03:40:00,
2013-06-30 23:50:00,64.7,63.5,29.67,NE,52,0.0,0.0,96,0.00,,,0.00,Wunderground v.1.15,2013-07-01 03:50:00,